Weather History for K1P1 - September, 2013

Change the Weather History Date:

Saturday, September 7, 2013

  Actual Average (KLCI) Record (KLCI)
Temperature  
Mean Temperature 57 °F -  
Max Temperature 72 °F 73 °F 89 °F (2007)
Min Temperature 42 °F 53 °F 40 °F (1984)
Degree Days  
Heating Degree Days 8    
Growing Degree Days 7 (Base 50)    
Moisture  
Dew Point 47 °F    
Average Humidity 71    
Maximum Humidity 98    
Minimum Humidity 42    
Precipitation  
Precipitation 0.00 in - - ()
Sea Level Pressure  
Sea Level Pressure 29.96 in    
Wind  
Wind Speed 2 mph (West)    
Max Wind Speed 10 mph    
Max Gust Speed -    
Visibility 10 miles    
Events Rain    
Averages and records for this station are not official NWS values.
T = Trace of Precipitation, MM = Missing Value Source: NWS Daily Summary

Daily Weather History Graph

Daily Weather History Graph

Search for Another Location

Airport or City:

Trip Planner

Search our weather history database for the weather conditions in past years. The results will help you decide how hot, cold, wet, or windy it might be!

Date:

Astronomy

Sep. 07, 2013 Rise Set
Actual Time 6:17 AM EDT 7:11 PM EDT
Civil Twilight 5:48 AM EDT 7:40 PM EDT
Nautical Twilight 5:13 AM EDT 8:15 PM EDT
Astronomical Twilight 4:36 AM EDT 8:51 PM EDT
Moon 8:34 AM EDT (9/7) 8:01 PM EDT (9/7)
Length of Visible Light 13h 52m
Length of Day
12h 54m
Waxing Crescent, 5% of the Moon is Illuminated
Sep 7
Waxing Crescent
Sep 12
First Quarter
Sep 19
Full
Sep 26
Last Quarter
Oct 4
New

Hourly Weather History & Observations

Time (EDT) Temp. Windchill Dew Point Humidity Pressure Visibility Wind Dir Wind Speed Gust Speed Precip Events Conditions
12:15 AM 48.2 °F - 46.2 °F 93% 30.07 in 10.0 mi NW 3.5 mph - N/A   Clear
12:35 AM 48.2 °F - 45.5 °F 90% 30.07 in 10.0 mi NW 3.5 mph - N/A   Clear
12:55 AM 47.8 °F - 45.0 °F 90% 30.07 in 10.0 mi Calm Calm - N/A   Clear
1:15 AM 47.3 °F - 45.0 °F 92% 30.06 in 10.0 mi Calm Calm - N/A   Clear
1:35 AM 45.1 °F - 43.5 °F 94% 30.06 in 10.0 mi Calm Calm - N/A   Clear
1:55 AM 45.3 °F - 43.9 °F 95% 30.06 in 10.0 mi Calm Calm - N/A   Scattered Clouds
2:15 AM 44.4 °F - 43.3 °F 96% 30.05 in 10.0 mi Calm Calm - N/A   Mostly Cloudy
2:35 AM 44.1 °F - 43.2 °F 97% 30.05 in 10.0 mi Calm Calm - N/A   Mostly Cloudy
2:55 AM 44.2 °F 42.7 °F 43.3 °F 97% 30.04 in 10.0 mi SSE 3.5 mph - N/A   Mostly Cloudy
3:15 AM 45.0 °F - 44.4 °F 98% 30.05 in 10.0 mi Calm Calm - N/A   Overcast
3:35 AM 45.7 °F - 44.8 °F 97% 30.05 in 10.0 mi Calm Calm - N/A   Overcast
3:55 AM 45.7 °F - 44.8 °F 97% 30.05 in 10.0 mi Calm Calm - N/A   Scattered Clouds
4:15 AM 45.9 °F - 44.8 °F 96% 30.04 in 10.0 mi Calm Calm - N/A   Scattered Clouds
4:35 AM 45.5 °F - 44.6 °F 97% 30.04 in 10.0 mi Calm Calm - N/A   Clear
4:55 AM 45.1 °F - 44.2 °F 97% 30.04 in 10.0 mi Calm Calm - N/A   Clear
5:15 AM 44.6 °F - 43.7 °F 97% 30.05 in 10.0 mi Calm Calm - N/A   Clear
5:35 AM 44.6 °F - 43.7 °F 97% 30.05 in 10.0 mi Calm Calm - N/A   Clear
5:55 AM 43.9 °F - 43.2 °F 97% 30.05 in 10.0 mi Calm Calm - N/A   Clear
6:15 AM 43.3 °F - 42.8 °F 98% 30.04 in 10.0 mi Calm Calm - N/A   Clear
6:35 AM 42.8 °F - 42.1 °F 97% 30.04 in 10.0 mi Calm Calm - N/A   Clear
6:55 AM 43.2 °F - 42.4 °F 97% 30.04 in 10.0 mi Calm Calm - N/A   Clear
7:15 AM 44.4 °F - 43.7 °F 97% 30.03 in 10.0 mi Calm Calm - N/A   Clear
7:35 AM 45.3 °F - 44.6 °F 97% 30.03 in 10.0 mi Calm Calm - N/A   Clear
7:55 AM 48.0 °F - 46.8 °F 95% 30.02 in 10.0 mi Calm Calm - N/A   Clear
8:15 AM 50.5 °F - 47.3 °F 89% 30.02 in 10.0 mi Calm Calm - N/A   Clear
8:35 AM 53.6 °F - 48.6 °F 83% 30.02 in 10.0 mi Calm Calm - N/A   Clear
8:55 AM 55.4 °F - 47.8 °F 76% 30.01 in 10.0 mi Calm Calm - N/A   Clear
9:15 AM 57.0 °F - 48.9 °F 74% 30.01 in 10.0 mi Calm Calm - N/A   Clear
9:35 AM 59.5 °F - 49.8 °F 70% 30.00 in 10.0 mi Calm Calm - N/A   Clear
9:55 AM 64.6 °F - 47.1 °F 53% 29.99 in 10.0 mi WNW 6.9 mph - N/A   Clear
10:15 AM 64.8 °F - 46.8 °F 52% 29.99 in 10.0 mi WNW 10.4 mph - N/A   Clear
10:35 AM 64.8 °F - 47.7 °F 54% 29.99 in 10.0 mi WNW 6.9 mph - N/A   Clear
10:55 AM 64.8 °F - 48.2 °F 55% 29.99 in 10.0 mi WNW 5.8 mph - N/A   Clear
11:15 AM 65.3 °F - 48.4 °F 54% 29.98 in 10.0 mi West 4.6 mph - N/A   Clear
11:35 AM 67.8 °F - 48.2 °F 49% 29.97 in 10.0 mi West 6.9 mph - N/A   Clear
11:55 AM 68.9 °F - 47.7 °F 47% 29.96 in 10.0 mi WNW 5.8 mph - N/A   Clear
12:15 PM 67.8 °F - 48.2 °F 49% 29.96 in 10.0 mi WNW 3.5 mph - N/A   Clear
12:35 PM 68.0 °F - 48.2 °F 49% 29.95 in 10.0 mi WNW 6.9 mph - N/A   Mostly Cloudy
12:55 PM 68.4 °F - 48.2 °F 48% 29.95 in 10.0 mi Calm Calm - N/A   Mostly Cloudy
1:15 PM 69.6 °F - 49.3 °F 48% 29.93 in 10.0 mi Calm Calm - N/A   Scattered Clouds
1:35 PM 72.0 °F - 47.5 °F 42% 29.92 in 10.0 mi WNW 3.5 mph - N/A   Mostly Cloudy
1:55 PM 71.8 °F - 47.7 °F 42% 29.91 in 10.0 mi Calm Calm - N/A   Overcast
2:15 PM 70.7 °F - 46.9 °F 43% 29.91 in 10.0 mi West 6.9 mph - N/A   Overcast
2:35 PM 69.6 °F - 45.7 °F 42% 29.91 in 10.0 mi West 4.6 mph - N/A   Overcast
2:55 PM 69.1 °F - 46.4 °F 44% 29.90 in 10.0 mi WNW 5.8 mph - N/A   Overcast
3:15 PM 69.4 °F - 45.9 °F 43% 29.90 in 10.0 mi WNW 4.6 mph - N/A   Overcast
3:35 PM 69.1 °F - 46.2 °F 44% 29.90 in 10.0 mi West 4.6 mph - N/A   Mostly Cloudy
3:55 PM 69.3 °F - 46.6 °F 44% 29.90 in 10.0 mi WSW 5.8 mph - N/A   Scattered Clouds
4:15 PM 68.5 °F - 46.4 °F 45% 29.90 in 10.0 mi WSW 4.6 mph - N/A   Scattered Clouds
4:35 PM 68.0 °F - 46.6 °F 46% 29.90 in 10.0 mi West 4.6 mph - N/A   Clear
4:55 PM 67.1 °F - 46.9 °F 48% 29.90 in 10.0 mi West 3.5 mph - N/A   Mostly Cloudy
5:15 PM 67.1 °F - 48.2 °F 51% 29.89 in 10.0 mi WNW 4.6 mph - N/A   Mostly Cloudy
5:35 PM 67.1 °F - 48.0 °F 50% 29.89 in 10.0 mi West 6.9 mph - N/A   Mostly Cloudy
5:55 PM 66.2 °F - 48.9 °F 54% 29.89 in 10.0 mi West 5.8 mph - N/A   Scattered Clouds
6:15 PM 65.7 °F - 49.8 °F 57% 29.89 in 10.0 mi WNW 5.8 mph - N/A   Clear
6:35 PM 64.6 °F - 50.9 °F 61% 29.89 in 10.0 mi NW 4.6 mph - N/A   Scattered Clouds
6:55 PM 64.8 °F - 51.1 °F 61% 29.88 in 10.0 mi WNW 3.5 mph - N/A   Light Drizzle
7:15 PM 64.6 °F - 50.7 °F 61% 29.88 in 10.0 mi West 5.8 mph - N/A   Overcast
7:35 PM 64.0 °F - 50.9 °F 62% 29.88 in 10.0 mi West 4.6 mph - N/A   Mostly Cloudy
7:55 PM 63.9 °F - 50.5 °F 62% 29.88 in 10.0 mi West 4.6 mph - N/A   Mostly Cloudy
8:15 PM 63.9 °F - 49.5 °F 59% 29.87 in 10.0 mi WSW 3.5 mph - N/A   Overcast
8:35 PM 63.1 °F - 50.4 °F 63% 29.87 in 10.0 mi West 5.8 mph - N/A   Overcast
8:55 PM 63.3 °F - 50.9 °F 64% 29.87 in 10.0 mi West 5.8 mph - N/A   Overcast
9:15 PM 63.5 °F - 50.7 °F 63% 29.87 in 10.0 mi West 3.5 mph - N/A   Overcast
9:35 PM 60.8 °F - 53.1 °F 76% 29.86 in 10.0 mi East 3.5 mph - N/A   Overcast
9:55 PM 60.1 °F - 53.2 °F 78% 29.86 in 10.0 mi Calm Calm - N/A Rain Light Rain
10:15 PM 61.7 °F - 49.8 °F 65% 29.86 in 10.0 mi WSW 5.8 mph - N/A   Scattered Clouds
10:35 PM 59.4 °F - 50.5 °F 73% 29.86 in 10.0 mi Calm Calm - N/A   Clear
10:55 PM 57.6 °F - 51.6 °F 81% 29.86 in 10.0 mi Calm Calm - N/A   Clear
11:15 PM 56.8 °F - 52.9 °F 87% 29.84 in 10.0 mi Calm Calm - N/A   Scattered Clouds
11:35 PM 58.1 °F - 52.5 °F 82% 29.84 in 10.0 mi Calm Calm - N/A   Overcast
11:55 PM 57.4 °F - 53.1 °F 85% 29.84 in 10.0 mi Calm Calm - N/A   Overcast